Location: Godiavel Galaoual
(15.2485°N, 12.6604°W)
Time: 13:59:55
(UTC+00:00)

Hubble Space Telescope - Pass Details

Date: 27 February 2020
Orbit: 536 x 540 km, 28.5° (Epoch: 29 March)

Event Time Altitude Azimuth Distance (km) Brightness Sun altitude
Rises 20:58:32 0° 306° (NW) 2,672 5.1 -29.8°
Reaches altitude 10° 21:01:00 10° 317° (NW) 1,782 3.9 -30.4°
Enters shadow 21:01:42 14° 323° (NW) 1,552 3.5 -30.6°
